Location: Znojmo
(48.8500°N, 16.0500°E)
Time: 01:13:49
(UTC+02:00)

ISS - Visible Passes

Search period start: 06 May 2021 00:00
Search period end: 16 May 2021 00:00
Orbit: 418 x 421 km, 51.6° (Epoch: 05 May)

Date Brightness Start Highest point End Pass type
(mag) Time Alt. Az. Time Alt. Az. Time Alt. Az.
06 May -3.8 02:48:19 77° SE 02:48:19 77° SE 02:51:38 10° ENE visible
06 May -3.0 04:21:54 10° W 04:25:12 51° N 04:28:32 10° ENE visible
07 May -2.1 02:02:24 27° E 02:02:24 27° E 02:04:10 10° ENE visible
07 May -3.1 03:35:20 17° W 03:37:43 55° N 03:41:04 10° ENE visible
08 May -0.9 01:16:27 11° E 01:16:27 11° E 01:16:40 10° ENE visible
08 May -3.4 02:49:24 45° WNW 02:50:14 64° NNW 02:53:36 10° ENE visible
08 May -3.0 04:23:59 10° WNW 04:27:19 53° N 04:30:39 10° E visible
09 May -3.1 02:03:25 54° ENE 02:03:25 54° ENE 02:06:09 10° ENE visible
09 May -2.9 03:36:29 10° WNW 03:39:48 50° N 03:43:07 10° E visible
10 May -1.7 01:17:25 21° ENE 01:17:25 21° ENE 01:18:42 10° ENE visible
10 May -2.9 02:50:22 22° WNW 02:52:18 51° N 02:55:36 10° ENE visible
10 May -3.5 04:25:57 10° WNW 04:29:21 73° NNE 04:32:44 10° ESE visible
11 May -3.1 02:04:18 49° NW 02:04:46 55° N 02:08:07 10° ENE visible
11 May -3.2 03:38:30 10° WNW 03:41:52 60° NNE 03:45:13 10° E visible
12 May -2.6 01:18:13 41° NE 01:18:13 41° NE 01:20:38 10° ENE visible
12 May -3.0 02:51:09 11° WNW 02:54:21 53° N 02:57:41 10° E visible
12 May -3.8 04:27:55 10° WNW 04:31:15 64° SSW 04:34:36 10° SE visible
13 May -1.6 00:32:04 19° ENE 00:32:04 19° ENE 00:33:11 10° ENE visible
13 May -2.9 02:04:58 22° WNW 02:06:50 50° N 02:10:09 10° E visible
13 May -3.8 03:40:26 10° WNW 03:43:50 87° SSW 03:47:13 10° ESE visible
13 May -1.0 23:45:40 10° ENE 23:45:40 10° ENE 23:45:43 10° ENE visible
14 May -2.9 01:18:34 41° NW 01:19:19 51° N 01:22:37 10° ENE visible
14 May -3.6 02:52:59 10° WNW 02:56:22 73° NNE 02:59:45 10° ESE visible
14 May -2.9 04:30:00 10° W 04:33:00 30° SW 04:35:59 10° SSE visible
14 May -1.8 21:17:28 10° SSE 21:18:41 12° SE 21:19:55 10° ESE visible
14 May -3.8 22:51:37 10° SW 22:54:55 56° SSE 22:58:14 10° ENE visible
15 May -3.1 00:28:27 10° W 00:31:46 55° N 00:35:07 10° ENE visible
15 May -3.3 02:05:31 10° WNW 02:08:52 60° NNE 02:12:13 10° E visible
15 May -3.5 03:42:25 10° WNW 03:45:39 43° SSW 03:48:52 10° SE visible
15 May -3.3 22:04:23 10° SW 22:07:32 38° SSE 22:10:42 10° ENE visible
15 May -3.4 23:40:55 10° W 23:44:16 64° NNW 23:47:38 10° ENE visible
